Theta_e
318 318 316 316 316 315 314 314 315 316 317 317 319 319 318 316 314 315 316 318 317 315 315 315 314 314 315 315 316 317 320 320 316 315 316 315 314 315 315 314 314 314 315 315 316 316 316 316 314 313 317 318 318 320 322 321 331 346 343 330 328 325 318 317 318 321 320 315 316 315 316 315 311 309 308 308 305 305 304 303 303 302 303 302 302 302 301 301
319 318 318 317 317 316 316 315 316 317 317 318 319 319 320 318 315 314 315 317 317 315 315 315 315 315 316 317 318 319 321 321 318 316 316 315 314 315 314 313 314 315 315 315 316 316 317 318 313 313 321 322 320 321 323 323 328 337 335 325 328 330 318 315 318 317 317 316 316 316 315 314 313 310 309 310 306 304 305 303 302 303 302 302 301 301 301 300
319 319 318 318 318 318 317 317 317 317 318 318 319 319 320 320 317 314 314 316 317 316 315 315 315 315 316 318 319 319 318 321 321 318 315 314 314 313 312 313 315 316 315 315 316 315 316 318 312 313 321 322 322 324 325 325 324 327 328 323 331 333 317 313 318 316 317 317 316 315 314 314 312 310 311 311 307 306 307 304 303 303 302 302 301 300 300 300
318 318 318 318 318 318 319 318 318 318 319 320 320 320 320 321 319 316 314 315 316 316 315 315 315 315 316 317 317 316 318 324 323 317 315 314 313 312 312 314 315 315 315 314 315 315 315 314 312 316 320 323 327 325 322 323 321 321 321 323 328 324 317 315 315 317 318 316 318 316 314 314 311 311 310 309 310 308 305 304 304 303 302 303 302 300 299 299
317 317 317 317 318 319 320 320 320 320 320 321 321 320 321 320 321 318 315 314 315 316 316 315 316 316 315 317 317 314 319 326 322 315 314 314 312 312 312 313 315 315 314 313 313 314 314 313 315 324 322 321 328 325 320 320 318 317 317 325 327 318 315 315 315 317 316 315 318 315 314 313 312 311 307 309 315 312 306 305 304 302 301 302 301 299 299 298
315 316 315 317 318 318 320 321 321 322 322 322 321 320 320 320 320 319 317 314 314 315 316 315 316 316 315 316 315 314 321 325 318 314 314 314 312 312 312 312 315 314 313 313 312 313 316 317 320 325 322 319 320 319 319 319 317 317 318 321 321 316 315 315 315 317 317 317 315 313 313 313 313 311 307 309 314 310 306 304 302 301 300 300 299 299 300 299
314 315 315 316 317 318 319 321 322 323 323 322 321 320 319 319 318 319 318 316 314 315 316 316 316 317 317 316 317 321 327 323 315 314 314 313 312 312 312 311 313 313 313 313 312 315 320 323 321 318 321 322 317 317 318 318 317 316 320 320 317 315 315 315 315 316 317 316 312 311 312 314 316 312 308 307 306 304 303 301 300 299 299 298 298 298 298 298
313 314 315 316 317 317 318 320 321 323 323 322 321 319 318 317 317 317 318 317 315 315 316 316 316 319 317 317 325 329 328 321 314 314 314 313 313 312 312 311 310 311 314 314 312 315 320 322 320 316 319 319 315 317 316 316 318 318 320 320 317 316 316 315 316 318 317 313 312 313 314 315 314 311 308 305 302 302 301 299 298 298 298 298 299 299 296 296
313 314 315 316 317 317 318 318 320 321 322 321 320 319 318 316 316 316 317 317 316 315 317 316 315 317 316 317 326 329 323 317 313 313 313 313 313 313 313 311 310 311 314 316 312 313 318 318 317 316 317 316 314 317 316 314 317 318 319 317 316 317 317 315 314 317 316 312 313 316 316 312 309 310 308 303 302 301 300 300 299 298 299 299 299 298 295 295
312 313 315 316 317 318 318 318 318 319 320 320 319 319 318 317 316 316 317 316 316 315 317 317 314 315 316 317 321 324 319 314 311 312 312 312 313 313 314 311 311 311 312 315 313 312 316 317 316 315 317 317 314 315 315 314 315 316 317 315 315 315 315 315 314 315 314 311 314 316 317 312 307 311 311 303 301 300 299 300 299 299 299 299 299 298 295 295
311 312 314 315 317 318 318 318 318 319 319 319 318 318 317 317 316 316 316 316 316 316 317 317 315 315 316 319 325 323 316 312 311 311 310 311 312 312 313 312 311 310 311 315 313 311 312 313 313 314 315 315 314 315 314 313 314 314 314 314 316 317 315 315 313 314 313 310 314 317 314 310 307 312 313 305 301 300 299 299 299 299 300 299 300 299 296 295
311 311 312 314 316 318 318 319 318 319 319 318 318 318 317 317 316 316 316 316 316 316 317 315 314 315 315 321 327 322 314 311 310 309 309 310 311 312 313 311 311 310 311 313 314 312 310 311 313 315 315 314 314 315 313 313 313 314 314 313 318 320 318 316 313 313 312 311 314 314 311 310 309 312 311 303 301 300 299 300 299 299 300 300 300 300 297 295
310 311 311 313 315 316 318 319 319 319 319 318 318 317 317 317 317 316 315 316 315 316 316 315 314 315 317 321 320 314 312 311 310 310 310 310 311 314 313 310 310 311 310 312 313 311 310 311 312 314 315 314 316 313 311 313 312 313 312 312 317 320 321 317 313 313 311 313 315 312 313 314 312 310 306 302 301 300 300 299 299 299 299 299 299 299 298 296
310 311 311 311 313 315 317 318 319 319 318 318 317 317 317 316 316 315 316 315 314 316 316 314 315 316 319 319 314 312 314 312 312 312 310 310 312 314 313 310 311 312 311 311 311 310 311 311 311 313 313 314 313 310 313 317 315 314 311 318 321 315 324 324 313 313 311 312 314 311 314 315 313 309 304 302 301 300 300 299 298 299 298 298 298 299 299 297
311 311 311 311 312 314 316 318 319 319 318 318 317 316 315 315 316 315 316 315 313 316 316 315 316 318 321 319 313 313 314 314 315 313 311 311 310 312 312 309 311 313 312 312 311 311 310 311 312 315 315 313 314 315 319 324 324 319 312 325 328 315 326 329 312 313 313 311 312 311 315 315 313 310 303 301 301 300 300 299 298 298 298 298 298 298 300 298
311 312 312 312 312 313 315 318 318 319 318 317 316 316 314 314 316 315 317 316 314 316 317 319 318 317 322 319 313 313 314 315 316 314 312 312 310 310 310 310 313 314 313 312 311 311 310 314 314 314 315 312 318 326 326 327 334 332 318 320 329 319 319 321 312 314 314 312 312 311 315 315 314 309 303 302 301 300 300 299 298 298 298 298 297 297 299 299
311 312 312 312 312 313 315 317 318 319 318 317 316 314 314 315 315 315 317 314 314 317 317 319 318 316 319 316 314 316 316 315 316 314 313 312 310 310 310 311 312 312 313 312 311 313 311 313 312 312 317 314 319 330 325 324 329 332 326 319 323 320 314 315 314 313 312 312 312 312 313 313 312 307 303 302 300 300 300 299 298 298 297 297 296 297 299 299
311 311 312 312 313 313 315 317 318 319 319 317 316 315 315 315 314 316 317 315 316 318 317 319 317 314 315 315 316 316 316 315 315 313 312 312 310 310 312 311 309 310 315 315 313 315 313 316 320 322 327 318 319 330 323 321 320 319 321 317 317 316 312 313 313 312 313 313 312 312 312 311 310 306 303 303 300 300 300 299 298 297 297 297 297 298 298 300
311 311 312 312 314 314 316 318 318 319 319 317 316 316 313 314 317 317 314 313 315 317 318 318 317 314 314 317 318 315 315 314 313 312 312 312 309 311 313 311 314 316 320 325 320 319 319 325 330 328 331 321 315 323 316 317 320 314 314 315 314 315 312 311 310 311 313 312 312 312 311 311 310 308 304 302 301 300 300 299 298 297 297 297 297 298 298 300
311 311 312 313 314 315 316 318 318 319 317 315 315 315 314 317 323 322 319 318 316 313 317 319 317 318 318 319 318 315 314 313 313 313 312 310 309 312 312 313 328 332 325 325 320 320 324 330 329 323 327 323 313 315 313 313 317 312 312 314 313 313 312 309 309 311 311 311 313 312 310 310 310 309 305 303 301 300 300 299 298 297 296 297 297 298 299 300
311 311 313 314 314 315 316 317 318 318 315 314 313 311 312 314 317 318 319 321 313 307 314 319 315 317 316 316 317 313 313 313 312 313 311 310 311 313 311 314 328 336 326 320 319 324 326 327 328 326 327 320 311 312 311 311 312 310 312 314 313 313 311 309 309 310 308 310 314 313 310 309 309 308 305 303 301 300 300 299 298 297 296 297 297 297 298 298
311 312 314 315 315 315 315 315 316 316 314 312 310 309 308 309 311 311 312 319 317 309 314 316 314 317 315 313 315 311 312 315 313 314 311 309 312 312 314 318 321 325 324 322 324 329 328 327 328 327 321 314 310 311 311 310 311 311 312 313 314 313 312 312 312 310 307 309 314 314 311 308 309 308 305 303 301 301 300 299 299 297 296 296 296 297 298 297
312 311 314 316 315 314 314 314 313 313 314 311 307 307 307 308 311 309 311 319 321 317 318 320 319 322 319 314 313 312 314 316 314 316 311 308 313 313 316 322 320 319 318 320 324 323 328 332 327 321 315 311 311 313 312 311 311 313 312 313 314 313 313 314 314 313 311 310 312 313 310 307 308 308 307 304 301 301 301 300 300 298 296 296 296 297 297 297
312 311 314 317 314 314 313 313 313 312 313 310 305 305 305 308 310 311 315 320 320 319 319 319 319 322 322 314 311 312 315 315 313 313 309 309 313 312 314 319 320 320 317 319 323 320 323 324 316 315 314 311 312 314 314 312 315 321 318 314 314 314 313 313 313 312 312 314 314 310 308 309 309 308 308 305 301 301 301 300 299 298 297 297 297 297 297 297
312 310 314 316 314 314 312 312 312 311 314 311 305 305 306 310 311 311 317 320 319 320 317 314 317 321 318 312 311 313 313 313 313 310 307 309 312 311 311 313 317 322 318 315 316 317 319 314 310 314 316 314 314 316 319 316 316 324 322 316 315 314 314 314 314 312 311 316 314 309 310 313 310 308 308 306 302 301 300 299 298 297 296 297 297 297 297 298
311 311 314 316 313 311 312 314 312 311 316 313 306 304 306 310 310 311 319 322 318 320 319 315 317 318 313 312 314 314 315 315 310 308 306 307 309 310 313 313 314 318 317 314 314 316 314 311 312 317 318 319 316 317 322 318 314 318 319 317 316 313 312 312 311 312 314 314 310 307 310 311 308 308 309 308 304 301 300 298 297 296 296 296 296 296 296 297
311 311 314 316 312 309 313 317 312 311 317 314 306 303 305 309 309 310 318 319 316 321 323 317 314 315 314 313 312 313 319 316 308 306 306 307 307 308 315 317 315 314 313 316 322 321 313 310 314 316 317 318 315 317 320 316 317 320 316 314 313 310 311 311 308 310 313 311 308 308 308 307 307 308 309 307 305 302 299 298 297 296 296 296 295 295 296 296
311 310 312 315 312 307 310 313 311 312 313 308 304 302 306 308 309 315 316 309 313 322 324 319 313 313 314 311 310 314 315 313 314 309 304 305 307 308 314 318 321 320 313 316 326 323 313 311 317 318 317 317 318 323 321 315 318 320 313 309 308 307 308 309 308 309 309 307 307 308 307 307 310 311 308 303 303 303 300 298 297 296 296 295 295 295 295 296
311 310 311 315 313 307 308 309 308 310 307 302 302 303 305 306 310 323 317 305 314 322 319 316 313 313 315 313 312 315 313 312 315 310 305 305 305 308 310 312 318 317 311 314 322 322 313 311 318 320 317 318 321 323 320 317 315 313 310 308 309 310 308 307 306 308 309 307 308 309 307 308 313 314 309 302 303 304 301 299 297 296 296 295 294 294 294 294
312 312 311 313 313 310 309 307 307 309 306 301 303 305 307 310 319 325 315 309 318 321 314 314 315 315 316 315 315 315 313 313 312 308 308 307 306 307 306 308 312 312 314 315 316 320 313 307 311 314 313 318 320 314 311 313 311 309 311 312 314 314 311 311 310 309 311 311 311 311 309 309 312 313 309 307 308 306 303 301 298 296 295 294 293 293 293 293
313 312 311 313 314 310 309 310 308 305 302 302 304 307 312 320 326 323 315 312 313 316 316 315 316 316 316 318 320 315 313 315 312 309 312 310 309 311 307 312 319 320 326 324 317 319 314 308 311 312 311 314 313 309 309 312 312 311 314 314 315 317 315 315 314 312 313 318 315 310 307 307 310 312 309 307 307 304 304 303 299 297 295 293 293 292 292 294
313 312 311 313 314 310 310 312 309 302 300 303 306 312 317 317 318 320 322 318 311 314 321 319 318 319 319 319 322 319 315 318 315 312 317 314 312 318 317 320 325 323 327 327 322 321 318 315 313 309 308 310 312 311 310 313 314 313 314 312 313 319 321 319 317 315 317 319 312 303 304 306 307 309 309 308 305 303 304 302 299 298 295 293 292 291 292 294
314 312 311 313 313 313 312 311 309 303 302 305 308 319 322 314 315 319 321 318 312 315 321 322 321 322 321 319 324 323 317 319 318 313 317 314 313 323 323 319 321 319 320 321 320 321 322 321 312 308 310 311 312 314 314 317 313 310 312 313 315 320 321 320 320 320 320 320 310 300 302 307 307 307 307 307 304 302 303 302 300 298 295 293 292 291 293 294
314 312 312 313 314 315 314 313 311 303 301 307 312 321 321 315 318 319 318 319 316 317 321 322 321 319 319 321 326 324 317 319 320 313 315 315 315 323 321 314 316 319 319 317 319 320 322 324 318 314 315 311 309 312 320 324 313 308 311 314 317 319 320 321 321 322 320 319 312 302 303 311 311 307 303 300 297 297 300 300 298 297 294 293 292 292 293 293
314 311 311 314 314 315 314 316 314 303 302 309 312 317 317 315 319 318 320 324 320 319 320 320 321 319 320 324 325 322 316 317 317 313 316 317 318 326 326 320 317 319 320 319 320 317 315 323 320 310 308 308 309 310 314 320 314 308 307 310 313 316 317 318 316 317 313 311 309 305 307 311 307 302 297 295 294 294 296 296 295 294 292 292 292 292 292 292
313 312 312 313 314 315 314 316 315 305 303 308 309 314 314 314 320 320 319 323 322 322 320 320 323 320 322 326 325 319 314 315 317 315 317 317 317 321 325 325 319 315 317 320 322 317 314 321 315 305 305 307 308 306 306 313 316 308 305 309 312 311 311 312 312 311 308 308 311 309 309 310 308 304 296 294 295 293 293 293 292 293 292 292 292 291 292 292
313 312 312 313 313 314 314 316 314 305 304 306 308 314 313 313 322 323 321 320 320 324 322 320 322 322 324 325 323 322 317 315 316 316 320 318 315 317 319 321 317 313 315 318 320 318 316 319 313 308 311 306 301 303 304 306 309 310 309 310 309 307 306 308 311 310 307 309 312 311 310 310 313 309 297 293 296 293 291 292 292 292 292 292 291 291 292 293
313 312 312 313 313 313 314 315 311 305 305 305 308 315 316 313 315 319 322 319 317 322 323 320 320 320 323 323 323 323 318 316 317 316 321 318 314 318 317 316 315 312 313 313 314 316 315 317 313 307 308 304 299 305 308 303 302 307 309 306 308 311 309 308 310 311 311 313 314 313 312 311 313 311 302 297 297 294 292 291 292 292 291 291 292 291 292 293
313 312 313 313 311 313 314 312 308 306 308 308 311 317 317 313 312 315 322 321 317 320 321 320 317 315 320 321 323 322 316 316 317 314 317 316 314 317 315 314 315 310 309 311 313 315 312 316 317 304 302 304 302 307 314 309 301 301 303 302 304 308 310 309 308 309 313 314 315 315 315 314 313 312 309 302 296 294 292 291 292 292 291 291 291 291 292 292
312 313 314 312 312 314 312 308 306 307 308 310 314 316 314 314 312 313 318 319 317 317 319 322 319 315 317 319 321 321 317 316 317 315 315 315 315 315 312 313 316 310 307 309 312 313 310 315 318 307 301 304 306 307 311 312 306 302 302 303 302 302 307 308 305 306 309 312 313 314 314 315 311 307 309 305 297 294 293 291 292 292 291 291 291 291 292 292
312 313 314 312 312 313 310 308 309 308 307 310 313 314 313 314 314 314 315 316 316 316 317 321 321 317 318 317 317 319 317 317 316 314 316 315 314 315 312 313 316 311 309 310 310 312 313 314 315 310 305 307 309 308 308 309 309 306 305 305 303 303 306 308 307 306 306 308 312 313 314 315 308 302 304 305 299 294 293 292 292 292 291 291 291 292 292 293
313 314 312 311 311 311 311 314 314 312 310 312 313 314 314 315 316 315 314 314 314 314 314 318 319 318 317 317 318 319 318 319 317 313 316 316 313 314 314 314 313 311 311 312 311 312 314 313 312 311 311 308 305 304 305 305 304 304 305 306 305 304 305 309 311 309 305 304 306 307 310 311 304 300 302 303 299 295 293 293 293 292 291 291 291 292 292 293
314 313 309 309 310 310 313 316 316 314 314 314 313 315 316 316 317 317 315 314 313 313 313 314 316 316 316 316 317 317 317 319 319 315 316 317 314 315 316 313 310 310 312 311 309 308 310 312 312 312 314 310 302 301 303 302 299 302 304 304 304 305 305 308 309 309 308 307 305 304 308 309 302 299 299 298 296 294 293 293 293 292 291 291 291 292 292 293
313 311 308 308 309 310 313 314 313 314 315 314 314 315 315 315 316 316 316 315 315 315 314 313 314 315 316 316 314 315 317 317 317 316 316 318 316 313 313 312 309 310 312 312 311 310 311 313 314 314 316 315 308 304 305 303 299 301 303 302 303 304 305 305 305 306 308 308 306 306 310 310 301 297 297 296 295 295 293 293 293 292 291 291 291 291 292 292
313 312 310 309 308 309 312 311 311 313 313 313 315 315 315 315 315 315 315 314 315 317 316 315 316 314 315 316 314 315 316 314 316 318 315 317 316 309 306 307 307 308 312 313 312 311 312 314 314 314 316 317 313 310 313 311 302 299 301 301 301 302 303 304 304 305 306 306 306 307 309 309 301 297 297 296 294 294 293 292 293 292 291 291 290 290 291 292
313 314 312 310 309 309 311 310 310 312 311 312 313 313 313 314 314 315 315 314 315 315 316 317 317 314 315 316 314 315 315 313 316 318 315 319 319 308 301 302 304 308 311 310 309 311 315 313 310 312 315 315 313 311 314 313 306 303 303 301 299 301 302 303 304 305 306 306 307 306 307 308 305 301 299 296 294 294 294 293 292 291 291 290 290 290 291 292
313 313 312 311 311 310 311 310 310 311 311 311 312 312 312 312 311 313 314 315 315 314 314 315 315 314 315 315 314 315 315 313 314 315 315 319 317 306 299 299 301 306 309 307 307 312 315 312 309 310 311 312 313 312 312 312 308 308 309 305 301 300 301 303 303 304 305 306 307 307 306 307 307 305 302 298 294 294 294 293 292 291 290 290 290 290 291 292
313 313 311 311 312 311 311 311 311 311 311 310 310 311 312 312 311 311 313 315 315 314 314 315 315 314 314 315 315 315 314 314 314 313 313 315 313 307 302 301 301 304 306 303 304 308 312 312 311 310 309 309 310 310 310 310 309 308 309 308 305 300 300 302 302 302 304 306 307 308 307 308 307 306 304 301 297 295 294 293 291 291 290 289 290 291 291 291
313 313 311 310 310 311 310 310 310 311 311 310 310 310 310 311 311 311 312 315 315 314 314 314 313 313 314 314 315 315 314 315 315 314 313 314 314 311 309 307 304 301 302 303 303 305 308 310 309 309 309 308 308 308 308 307 307 307 307 307 307 303 301 301 301 302 303 304 305 306 306 306 306 305 304 303 300 297 294 293 291 291 290 290 290 290 290 290
314 313 312 310 309 310 310 310 310 311 311 310 311 310 309 309 310 310 312 314 315 314 314 313 313 313 314 314 314 314 314 314 315 315 314 314 314 313 312 314 309 301 299 301 302 303 306 309 310 309 308 308 307 307 307 307 307 307 307 306 307 306 305 304 303 303 303 303 303 303 304 304 303 303 302 302 301 298 296 294 292 290 290 290 289 290 290 290
314 312 310 310 310 309 309 309 309 310 311 310 310 310 309 309 308 309 311 312 313 313 313 314 314 313 313 314 314 314 313 314 314 314 314 314 315 314 313 313 312 306 300 299 302 303 304 307 310 309 308 310 310 308 307 306 305 305 306 306 305 306 307 306 306 306 305 305 304 303 303 303 302 302 301 300 300 298 296 294 292 290 290 289 289 290 290 290
313 311 310 312 312 310 309 309 309 310 310 310 310 310 309 309 308 308 309 310 311 312 313 314 314 313 314 314 313 313 313 313 314 315 315 313 313 315 314 312 311 308 302 299 301 303 304 306 308 308 309 310 308 305 304 305 306 308 308 307 306 305 305 306 306 305 305 305 305 305 304 304 303 302 301 300 299 298 296 294 292 290 289 289 289 290 290 289
Wind_Speed
17 18 19 20 20 21 21 22 22 23 24 24 25 26 26 25 23 23 22 23 21 17 12 6 7 9 9 9 9 7 8 11 13 19 15 10 14 12 10 11 11 12 11 11 13 9 7 8 8 14 10 3 2 0 2 2 2 5 3 4 2 0 1 2 5 5 3 3 3 4 1 10 6 2 4 5 11 9 9 9 7 8 8 8 12 14 14 16
17 18 18 19 20 20 21 21 21 22 23 23 24 24 25 25 23 22 21 20 20 17 13 7 6 9 9 8 5 5 7 7 11 16 13 12 13 10 9 10 10 10 11 12 13 10 5 6 8 10 7 2 3 1 2 2 3 4 3 3 1 4 1 2 5 5 3 5 3 4 1 6 8 7 4 4 3 6 10 6 5 8 7 8 11 13 15 18
16 17 17 18 19 20 20 20 20 21 22 22 23 23 24 25 24 22 20 19 18 17 14 9 3 8 9 7 4 5 7 6 6 8 11 12 10 9 9 9 10 10 12 11 9 8 5 6 7 4 4 2 2 2 2 2 2 2 3 3 4 5 1 3 3 5 5 7 5 3 2 3 4 6 4 8 7 3 8 6 4 6 6 6 7 11 16 18
15 16 17 17 18 19 20 20 20 20 21 21 22 22 22 23 24 23 20 18 17 16 13 10 4 6 9 7 4 3 6 6 3 5 10 9 8 10 9 8 10 10 12 11 8 8 6 4 3 1 3 3 3 2 1 2 1 1 2 3 6 4 2 3 4 5 4 6 7 4 2 4 2 3 6 12 8 1 6 8 8 10 10 8 6 9 14 16
14 15 16 16 17 18 19 19 19 19 20 20 21 22 21 22 23 23 20 17 16 15 13 10 6 3 8 9 5 2 6 4 2 5 8 6 7 9 9 9 9 10 12 12 10 8 8 6 5 4 4 2 4 4 0 2 2 1 2 4 5 3 3 4 5 4 4 4 5 4 3 3 1 4 6 11 7 5 7 7 9 11 11 9 8 9 11 13
13 14 14 15 16 17 18 18 19 19 18 19 20 21 21 21 22 23 21 17 15 14 13 9 6 4 5 9 6 1 4 2 3 4 5 4 7 8 9 10 9 10 10 11 13 11 9 8 6 4 3 3 3 1 1 3 2 1 4 2 3 3 3 4 4 2 4 6 5 4 2 2 5 4 3 5 4 5 6 7 10 10 11 13 11 10 9 9
13 13 14 15 15 16 17 17 18 18 18 18 19 20 21 21 22 23 21 17 15 13 12 8 4 5 7 5 5 1 4 2 4 3 4 3 5 7 7 7 9 10 9 11 15 9 6 8 6 3 3 3 1 1 2 5 3 3 3 3 2 3 3 5 5 3 5 6 2 3 4 3 6 5 3 3 3 5 9 10 12 13 14 14 11 8 8 9
12 13 13 14 15 16 16 16 17 17 18 18 19 19 20 21 21 23 22 18 15 13 11 8 2 4 5 4 4 3 2 3 2 1 2 2 3 6 6 5 8 10 9 12 12 5 3 6 4 2 3 1 1 2 3 5 4 3 3 3 2 2 2 4 5 6 6 4 1 5 4 5 7 5 4 4 5 7 9 10 11 12 12 11 9 8 8 9
12 12 13 14 14 15 15 16 16 16 17 17 18 19 20 21 21 23 22 18 15 13 12 7 1 3 4 2 5 2 2 3 0 1 2 2 3 5 6 5 7 9 7 9 9 6 4 2 1 1 1 1 1 3 3 3 2 3 3 2 2 4 3 2 4 5 6 3 3 6 2 3 5 5 4 4 7 8 9 10 9 10 9 8 8 7 8 8
11 12 13 14 14 15 15 16 16 16 17 17 18 19 20 21 21 23 22 18 14 13 12 5 1 2 5 3 6 1 3 2 2 1 2 1 2 3 4 4 7 7 6 6 8 8 4 3 2 2 3 0 2 3 1 2 2 2 1 2 2 5 5 2 3 4 4 2 3 6 1 4 4 0 1 6 8 9 10 9 8 9 9 8 7 7 9 9
11 12 13 14 15 15 15 16 16 16 16 17 18 19 20 21 22 23 22 17 13 12 11 3 3 2 4 4 5 3 4 3 3 3 3 2 3 3 2 4 6 6 5 4 5 5 4 5 4 3 2 1 2 3 1 1 1 1 2 5 6 5 5 3 4 4 4 1 3 8 3 3 2 3 5 11 10 10 12 10 8 8 8 8 8 7 8 8
10 12 12 14 15 15 16 16 16 17 17 17 18 19 20 20 21 22 21 15 12 12 8 3 2 3 2 3 3 4 5 4 4 5 4 3 3 3 3 4 6 6 4 3 3 3 3 3 5 3 1 0 1 2 0 1 1 1 2 4 8 8 6 5 3 4 5 3 4 8 3 1 6 6 5 13 12 9 11 10 8 8 7 7 7 6 6 8
10 11 12 13 14 15 16 16 17 17 17 18 18 19 20 20 20 21 19 12 11 12 6 2 1 5 3 1 2 5 6 5 4 5 5 4 2 2 4 5 6 6 5 3 2 2 3 2 4 4 1 2 1 1 2 2 2 1 2 1 4 7 6 6 1 3 5 4 5 6 2 5 10 9 5 12 13 11 10 9 8 8 7 6 6 6 6 7
10 10 11 12 13 15 15 16 18 18 18 19 18 20 20 20 20 20 16 10 10 11 5 1 1 4 2 1 3 5 5 4 3 3 4 4 2 2 4 6 5 5 5 4 3 2 3 2 4 4 1 2 1 2 2 5 3 0 1 2 2 3 5 7 1 5 5 3 5 5 4 7 9 8 8 12 13 14 12 10 9 8 7 6 6 6 5 7
9 10 11 12 13 14 15 16 17 18 19 19 19 20 20 21 20 18 13 7 9 10 4 1 3 3 3 0 3 6 5 4 2 2 2 5 4 1 4 5 1 3 4 3 3 2 2 2 3 3 1 2 3 3 3 4 3 2 2 3 3 1 5 9 2 7 6 2 3 5 4 7 7 7 10 11 12 13 12 10 10 9 8 7 6 6 5 6
10 10 11 11 12 13 15 16 17 19 19 19 21 20 20 22 18 15 12 6 9 9 4 2 3 3 2 0 3 5 5 6 4 2 1 4 5 2 4 2 3 3 2 2 2 1 1 3 3 2 1 3 5 4 3 4 4 3 2 3 4 2 3 6 3 4 5 2 2 5 5 7 6 6 9 10 11 11 10 10 10 9 9 8 6 6 6 5
11 11 11 12 12 13 14 15 16 18 19 20 21 21 21 19 15 14 9 6 9 6 4 2 2 2 1 2 3 3 4 6 5 3 2 3 5 4 4 3 4 3 2 1 1 1 3 3 1 0 3 4 3 3 4 4 4 4 3 2 4 4 3 4 5 4 2 3 5 5 7 10 5 6 10 10 11 11 11 12 11 10 8 7 7 6 6 6
12 12 12 12 12 13 13 14 16 17 19 19 20 22 20 14 12 9 3 4 8 1 3 2 1 1 2 2 2 3 2 4 4 4 4 3 4 4 2 3 3 3 3 3 2 3 3 2 2 1 4 4 3 5 2 3 3 4 4 3 4 4 4 5 5 4 2 4 7 4 7 13 6 6 11 10 10 12 12 11 10 9 8 7 7 6 7 7
12 12 12 12 12 12 12 13 15 17 19 19 19 20 15 9 7 3 1 6 5 2 2 3 2 1 3 3 2 2 1 3 3 3 4 1 3 3 2 3 3 3 3 3 2 3 2 3 4 2 3 3 1 4 5 7 6 6 5 4 5 5 7 7 6 6 4 4 9 9 10 13 8 7 11 10 9 10 9 8 7 8 8 7 7 6 7 6
12 12 12 11 11 11 12 12 13 16 17 18 19 15 7 5 5 3 5 7 1 3 1 4 4 2 2 1 1 1 2 3 2 4 4 2 2 2 3 3 5 5 3 1 4 3 4 4 3 3 5 6 6 6 6 5 6 4 3 4 6 5 8 8 6 6 2 3 9 10 10 13 10 9 12 10 9 9 9 9 9 9 8 8 8 8 8 7
13 12 11 10 11 10 11 11 12 14 14 14 15 8 1 1 2 3 5 6 7 3 3 5 3 3 4 2 2 2 0 1 1 3 2 3 1 4 0 2 5 4 2 0 2 3 5 3 4 7 8 7 6 5 4 3 4 3 3 4 6 5 8 10 6 5 0 3 7 6 6 11 10 9 9 9 10 13 14 14 13 13 11 9 9 9 9 6
15 13 10 10 10 10 10 10 11 12 11 10 8 5 5 4 4 2 0 4 8 3 2 4 2 3 4 2 3 1 2 0 3 3 2 2 1 3 1 3 4 1 3 3 3 5 5 3 8 8 6 5 0 1 2 2 3 2 1 1 5 4 5 8 6 4 1 2 5 7 7 8 9 10 9 11 13 14 16 16 15 16 14 11 10 10 9 7
17 14 10 9 9 9 10 9 9 10 8 6 5 7 6 4 6 4 3 1 7 4 0 2 2 2 2 2 4 3 3 2 3 3 2 2 1 1 3 5 3 1 2 3 2 1 3 5 8 4 5 4 2 2 2 1 1 3 3 1 5 4 2 5 5 5 3 3 5 9 10 7 7 10 11 12 14 13 12 12 10 11 13 12 11 9 9 9
18 15 10 8 9 9 9 9 8 7 5 3 5 5 5 5 6 4 2 0 4 5 2 2 2 3 2 1 3 4 2 2 3 2 2 2 2 1 3 4 4 2 2 3 6 3 6 6 3 5 5 4 2 1 2 2 3 4 5 5 7 7 6 7 4 5 5 4 5 8 10 6 7 12 13 6 7 10 7 8 8 8 9 9 8 8 8 9
18 16 10 7 9 9 8 8 6 4 2 1 3 3 5 6 6 4 1 2 3 5 2 1 1 2 3 3 3 3 1 1 2 2 2 3 4 1 1 2 3 2 5 4 4 3 8 5 3 5 2 3 4 3 4 6 2 5 5 9 10 9 9 7 6 6 4 4 4 4 5 6 3 8 11 1 3 9 6 8 12 10 8 8 8 8 8 7
17 15 10 7 8 9 6 4 3 1 2 1 1 2 5 6 6 5 2 4 3 5 0 1 1 2 4 2 2 2 1 3 3 1 2 2 2 2 2 1 2 1 5 3 1 2 3 2 3 5 4 4 3 4 5 6 4 3 5 6 6 6 5 5 5 4 2 3 3 2 1 8 2 4 10 4 6 11 7 9 12 10 10 9 8 8 7 7
15 14 10 6 7 8 5 2 2 2 2 2 1 2 4 6 6 4 2 4 4 3 3 1 1 3 5 1 1 3 2 3 1 1 1 2 1 2 2 2 1 1 3 3 2 3 3 1 3 3 4 3 3 4 5 7 6 3 4 4 4 2 4 4 2 2 3 2 6 2 4 7 7 6 8 7 9 11 9 11 11 10 12 10 8 8 8 8
15 14 10 6 6 7 5 3 3 3 2 2 2 2 4 5 5 2 4 2 4 1 2 1 1 3 2 0 2 3 2 1 2 1 1 2 1 3 2 5 6 5 3 5 3 6 3 4 4 4 3 3 5 5 7 9 4 5 5 4 1 2 4 3 2 5 2 3 8 6 6 4 9 5 3 2 7 11 12 14 13 13 14 11 9 9 8 8
14 13 9 8 6 5 5 5 4 4 3 3 2 3 5 5 3 4 4 2 3 0 1 1 2 1 1 1 1 1 1 1 2 2 2 2 1 3 1 4 6 5 2 3 5 6 2 4 7 7 4 5 6 5 7 8 4 3 3 2 2 1 1 1 1 3 2 2 10 8 7 4 8 3 1 1 5 11 12 13 12 13 12 10 9 9 9 8
13 12 10 9 7 4 5 6 6 6 5 4 4 5 6 4 4 4 1 4 2 0 0 1 2 2 4 3 2 1 2 2 0 1 3 1 2 4 1 1 5 4 1 3 2 5 3 1 3 4 4 5 4 2 2 3 3 2 4 3 5 4 2 3 1 2 3 3 10 8 11 8 6 3 5 4 6 9 10 8 9 12 12 10 10 10 9 8
13 12 10 9 7 4 4 4 5 7 6 5 6 7 4 2 4 4 5 5 2 1 1 1 1 2 5 5 2 1 2 1 1 2 1 0 2 3 1 0 4 3 3 4 3 5 5 1 2 2 2 4 6 4 2 3 2 3 4 4 4 5 4 4 4 3 2 6 7 5 9 9 7 6 5 8 8 7 8 9 13 17 15 12 11 10 9 8
14 11 9 10 9 7 5 4 3 5 6 8 8 5 4 0 0 4 5 4 2 2 3 2 2 3 4 2 1 3 2 1 1 3 3 2 1 2 3 4 2 2 5 2 2 5 3 4 3 3 1 4 6 3 2 5 5 4 3 4 3 4 4 3 3 0 3 7 4 2 3 5 10 10 8 12 13 8 8 9 14 17 15 14 13 10 8 7
13 10 10 11 11 10 9 6 4 4 7 10 6 4 6 3 5 6 5 3 2 2 2 2 1 3 5 3 2 3 2 2 3 2 3 2 1 3 4 4 6 3 4 3 1 3 3 5 2 1 2 3 7 5 2 2 1 4 4 3 2 0 3 4 4 3 5 7 3 3 2 4 9 9 10 14 12 8 8 9 11 13 16 16 14 10 8 8
11 9 11 12 13 13 11 8 7 6 7 7 4 4 4 5 6 5 6 6 3 1 1 2 3 3 4 3 4 4 3 3 3 3 1 1 1 3 4 4 5 5 2 2 1 2 2 5 3 5 2 4 8 6 5 5 4 4 4 4 4 3 2 4 4 5 7 7 4 2 2 5 5 3 6 8 7 4 5 6 5 8 13 12 10 9 8 8
11 10 13 14 15 16 13 11 9 8 8 5 4 3 7 7 4 3 5 5 2 0 1 1 4 4 2 3 3 3 4 4 1 3 2 3 4 4 3 5 6 5 4 3 2 2 4 6 6 2 1 6 7 4 5 6 3 2 3 4 2 4 5 3 3 4 4 7 6 3 3 6 4 2 2 1 3 3 1 4 8 9 11 10 8 8 8 7
16 15 14 15 17 16 14 11 9 10 8 5 4 7 8 6 4 5 5 4 4 5 4 2 3 4 4 3 3 3 2 1 1 2 2 3 3 5 5 5 7 8 7 5 3 2 2 6 4 1 1 3 5 4 3 3 2 2 2 3 5 4 5 2 4 1 2 4 6 3 6 7 2 4 1 4 3 2 2 4 9 11 11 11 9 8 7 7
17 15 11 13 16 17 15 11 8 10 6 5 7 9 6 6 6 6 4 3 3 5 7 3 2 5 5 3 4 4 1 1 1 2 2 3 3 5 6 4 5 12 11 5 2 4 2 5 4 3 2 3 2 2 2 1 3 5 3 5 3 2 3 2 1 3 1 5 6 2 9 11 4 4 2 4 2 3 3 5 8 9 10 10 9 8 8 8
11 6 7 14 19 16 13 12 11 9 5 3 9 8 4 6 5 5 5 4 3 4 6 5 5 5 6 5 4 4 3 3 3 3 3 3 4 5 6 4 5 8 8 4 1 2 2 3 5 1 2 2 2 2 1 3 1 4 3 3 2 2 2 2 2 2 2 5 7 5 10 13 8 5 2 4 8 9 7 6 8 10 11 10 9 8 8 7
6 2 5 14 20 17 13 13 12 8 3 6 10 7 4 5 6 6 6 4 3 3 4 6 5 4 5 6 4 3 4 6 5 4 3 3 4 5 6 5 3 2 2 5 4 2 3 1 4 2 1 2 2 1 3 2 1 2 1 2 0 3 4 3 2 2 3 5 8 7 9 10 6 5 7 10 12 12 11 9 11 14 13 10 9 9 8 7
7 2 2 9 20 22 17 14 9 5 5 9 9 5 3 4 6 7 7 6 4 3 4 5 5 5 5 5 4 3 5 6 6 4 4 4 4 5 6 5 4 3 2 4 3 1 2 2 3 2 3 1 2 4 7 8 5 3 2 2 3 2 1 1 2 2 3 6 7 5 10 11 3 4 7 11 13 13 14 14 14 13 11 10 9 9 8 7
7 4 3 10 23 25 19 10 5 5 6 8 7 6 5 4 4 6 8 9 6 3 3 5 6 6 5 5 4 4 4 4 6 5 4 5 5 5 7 7 8 7 3 4 1 3 3 3 4 2 1 4 6 5 6 9 8 6 6 7 7 5 2 2 5 3 3 6 6 3 12 14 3 3 6 8 10 11 14 15 13 11 11 10 9 9 8 7
5 5 2 11 25 28 17 5 4 4 5 8 6 5 5 4 4 5 7 8 7 5 2 3 6 7 6 6 6 6 5 4 6 6 5 8 9 7 6 8 10 10 7 3 2 3 3 2 3 5 5 5 5 4 1 3 4 3 5 5 6 6 6 6 8 3 2 6 4 0 11 13 2 4 5 6 8 10 13 15 12 10 11 10 9 8 8 7
6 5 3 12 26 25 12 6 5 4 5 6 5 5 4 3 4 5 6 7 6 5 5 4 5 7 7 6 6 6 6 5 7 8 6 7 8 7 7 10 11 9 6 2 1 1 2 2 3 5 5 1 2 4 4 3 2 2 5 5 7 8 9 8 6 1 2 6 3 1 13 13 1 1 2 3 5 7 10 12 11 10 8 9 9 9 7 7
4 3 2 13 27 20 9 8 8 8 8 5 7 10 7 4 6 8 9 10 8 5 6 7 5 8 8 6 6 7 7 6 7 9 8 6 5 4 5 11 13 10 6 4 4 4 3 2 3 2 5 5 3 3 4 3 1 4 5 5 9 12 8 2 1 1 5 8 6 5 15 12 1 3 2 2 4 6 8 9 9 10 9 8 8 8 7 7
3 3 1 12 22 14 6 4 5 7 10 9 10 11 9 7 8 11 11 11 8 5 5 6 5 8 6 4 5 8 9 9 8 6 7 6 3 2 0 7 11 9 4 2 5 7 5 4 5 4 5 7 8 5 3 3 3 2 4 7 10 13 11 5 2 5 10 8 7 11 17 13 5 2 2 3 5 7 7 6 6 8 9 9 8 8 7 6
4 4 2 6 10 8 5 4 3 3 7 9 7 9 15 14 8 8 11 11 8 7 6 5 3 6 6 6 8 9 10 12 9 5 4 4 4 2 1 3 5 4 1 1 5 6 3 2 7 9 10 11 14 13 3 5 3 5 7 10 11 12 13 9 6 10 10 4 9 19 18 18 18 9 4 6 7 8 8 7 7 7 8 9 9 8 7 6
5 6 7 6 4 6 8 6 5 4 5 9 8 7 15 19 11 5 9 10 9 9 8 6 5 8 8 9 9 10 12 13 11 9 6 4 3 2 1 0 1 2 2 2 3 4 4 5 10 12 15 17 20 17 5 4 8 13 14 13 11 11 13 13 14 17 8 2 13 25 18 18 26 17 8 10 10 9 9 9 10 10 9 9 8 8 8 7
6 4 8 10 5 7 11 12 12 10 10 11 9 7 10 15 15 11 9 7 7 10 9 6 11 16 14 12 10 10 13 12 11 11 9 6 5 2 1 0 2 3 3 2 2 3 4 8 11 10 15 20 21 17 8 6 10 14 20 18 10 12 16 19 22 22 13 10 20 27 20 20 25 17 9 11 11 11 11 11 10 9 9 9 9 9 9 7
7 2 4 9 7 7 10 14 14 15 18 15 8 11 15 17 17 13 8 6 6 13 14 12 17 19 16 14 12 12 15 13 11 12 11 11 11 6 2 2 2 2 3 4 2 2 4 7 9 9 12 18 18 13 9 11 13 16 26 24 13 14 19 20 22 24 21 20 25 27 27 28 26 18 12 10 9 10 9 8 8 9 10 11 11 10 9 8
8 3 5 7 7 7 6 9 11 12 16 14 12 17 18 17 17 12 9 11 11 12 15 20 22 18 17 18 17 20 23 18 14 15 13 12 11 7 5 5 3 2 3 5 2 2 4 5 4 4 7 15 16 11 9 12 13 19 29 26 15 15 18 19 22 23 19 21 27 27 24 25 25 19 13 9 7 7 6 8 10 11 12 12 12 11 9 9
13 7 10 7 6 9 6 7 10 10 12 12 15 19 15 16 20 14 9 14 18 14 15 24 27 16 14 20 24 28 28 20 18 20 16 14 12 8 7 7 8 7 5 6 4 3 6 3 1 4 6 13 9 3 4 5 6 17 30 27 17 16 19 19 20 20 18 21 24 20 16 20 21 12 6 6 8 9 9 11 10 10 12 13 13 11 10 9
14 7 11 7 6 11 9 8 11 10 12 14 17 18 16 18 19 14 9 13 18 17 15 21 23 13 11 22 31 32 27 19 16 14 9 8 7 5 4 6 11 11 9 8 5 4 6 5 2 4 7 9 2 4 3 2 4 15 20 16 16 20 22 20 18 21 22 18 15 14 16 19 15 6 4 7 9 10 10 10 10 10 11 12 12 11 10 9
Wind_Direction
22 21 21 21 22 23 23 23 23 23 24 24 26 27 27 28 27 27 25 23 24 28 42 81 138 137 135 127 112 95 44 36 45 49 50 12 355 1 360 354 357 6 8 1 6 20 15 5 355 356 3 10 25 317 346 7 58 54 80 74 47 247 106 178 177 185 154 149 237 290 97 120 132 169 140 54 51 81 74 62 66 64 68 95 118 121 105 90
18 17 17 19 19 20 20 20 20 20 20 20 21 23 24 24 24 25 25 24 23 23 31 55 143 155 146 137 122 57 16 6 30 40 29 1 4 5 358 1 3 6 7 3 7 15 3 329 329 357 20 21 342 340 9 354 66 81 112 71 250 205 179 228 172 169 155 152 206 273 183 126 148 166 144 107 108 102 90 72 70 84 81 92 106 106 95 84
14 13 13 15 16 17 17 17 17 17 17 17 16 18 20 19 19 21 23 23 24 22 21 34 115 173 165 153 130 41 3 352 18 16 359 360 8 1 0 3 1 5 6 8 9 7 348 301 307 356 35 20 336 352 34 6 53 117 107 66 248 210 165 283 181 165 181 159 152 221 209 90 148 163 121 127 147 138 126 141 130 128 140 122 107 98 91 82
10 9 9 11 12 13 14 14 15 14 14 14 13 13 15 16 14 14 18 19 21 23 17 21 54 173 181 170 132 40 7 23 7 326 343 2 11 3 9 6 3 6 4 16 25 17 14 337 315 70 60 14 331 9 54 337 33 120 120 157 225 194 141 253 207 168 166 147 145 173 120 82 129 126 128 138 129 204 190 184 171 161 159 146 131 106 94 87
8 6 7 6 7 10 10 11 12 13 12 12 12 9 10 11 10 9 11 13 14 20 19 13 26 138 187 186 165 0 23 49 291 320 344 3 15 7 19 17 6 2 4 19 23 23 28 25 44 51 47 25 345 15 12 282 94 86 262 197 201 166 141 224 219 189 160 116 108 126 126 142 107 70 134 145 143 208 201 190 167 153 150 146 140 120 102 95
5 5 5 4 4 5 6 7 8 10 11 11 10 7 6 5 5 5 3 5 6 11 17 13 16 73 161 187 198 300 62 117 270 333 340 4 17 6 25 20 6 352 353 13 15 23 28 22 47 42 23 43 6 4 262 302 65 105 289 274 212 172 134 199 208 209 154 103 103 150 147 105 88 79 131 136 169 192 152 145 143 137 141 135 126 121 111 107
2 3 3 3 2 1 2 3 3 6 7 8 7 4 3 0 360 359 358 358 357 0 8 11 22 88 103 147 185 80 81 196 269 326 330 12 9 5 24 13 5 347 347 18 15 20 35 27 42 61 45 45 16 264 291 322 27 120 255 300 242 175 143 189 178 158 127 103 152 157 109 137 149 146 104 95 143 131 120 128 131 131 133 126 119 121 124 128
358 359 1 2 1 359 358 357 358 360 1 2 2 0 358 357 354 352 352 351 350 351 353 1 16 142 109 112 148 62 35 223 256 305 334 352 328 2 11 354 1 353 14 37 23 21 51 39 32 53 52 36 50 339 323 337 8 123 220 282 274 215 172 188 164 137 120 107 100 92 107 196 178 141 102 128 138 122 125 125 127 130 128 126 125 128 130 127
353 355 357 359 359 358 355 354 354 353 354 355 354 354 352 352 350 347 347 345 344 342 342 350 333 189 184 141 99 62 276 206 162 340 358 317 306 354 351 355 7 3 38 44 29 45 66 66 349 54 90 252 27 333 338 16 316 205 208 272 313 305 292 194 166 145 135 142 98 76 11 226 163 109 85 173 160 137 134 130 137 136 134 138 135 140 137 128
348 350 352 354 355 355 353 352 350 348 348 346 346 348 347 346 345 343 342 342 338 334 338 336 186 140 185 160 82 93 229 144 110 66 52 332 347 357 337 11 17 10 41 38 31 51 82 152 188 119 135 211 358 304 319 100 250 231 238 272 263 286 288 220 180 183 144 153 121 114 203 210 190 115 162 202 178 150 139 141 153 140 143 151 147 152 140 134
344 347 347 349 350 350 350 349 348 346 344 342 340 340 342 342 341 338 337 338 333 329 335 318 184 156 183 140 102 192 197 126 108 86 81 72 44 26 5 21 22 22 37 50 54 61 93 149 157 120 115 31 320 303 275 191 258 291 325 313 302 312 298 235 178 199 153 164 147 121 127 203 210 287 206 184 172 161 148 149 161 147 152 157 154 158 147 143
338 341 342 343 345 345 345 344 344 343 341 341 337 336 338 338 336 332 333 334 327 327 329 312 220 197 169 95 115 179 166 140 102 76 64 54 49 44 40 14 19 32 32 58 89 83 81 114 113 101 283 166 313 333 160 233 304 310 14 324 305 348 327 258 187 190 163 180 172 121 65 245 214 248 194 162 161 161 150 153 164 157 162 164 158 162 162 154
332 337 337 337 339 340 340 339 340 340 339 339 336 335 335 334 332 326 327 328 323 326 318 314 243 176 146 56 164 148 146 142 95 68 47 38 58 58 30 4 15 35 37 56 98 102 73 70 103 115 191 114 282 275 131 5 0 294 28 48 306 359 326 279 100 148 159 179 178 149 281 250 224 235 173 155 160 157 156 165 170 166 169 168 163 163 169 170
325 329 330 332 333 334 334 334 335 336 336 336 334 333 331 330 326 320 321 320 323 323 301 309 159 163 129 203 182 153 159 156 104 51 46 39 53 95 16 0 15 46 53 59 69 78 78 59 83 94 115 138 258 295 16 3 12 282 8 37 3 9 287 295 25 140 161 206 154 138 254 255 244 237 182 169 167 162 167 174 174 175 174 170 169 165 171 185
316 321 325 328 328 329 331 331 332 332 333 333 331 330 328 326 320 315 312 306 332 324 275 234 192 160 82 322 184 165 181 196 210 330 32 27 33 101 351 352 45 81 72 60 58 73 86 58 67 81 286 319 34 22 354 347 7 34 10 327 338 172 271 305 303 162 180 252 130 137 243 265 259 229 186 175 173 169 171 180 180 180 178 175 176 171 174 192
309 315 320 323 325 327 328 328 329 330 331 330 330 327 325 323 314 310 299 276 331 322 245 199 200 156 85 270 168 168 201 215 224 268 270 357 8 357 350 29 123 97 104 84 67 71 50 52 68 103 351 7 58 68 27 9 348 359 45 280 273 215 279 315 315 212 199 216 211 192 230 272 267 208 185 180 180 174 173 184 185 184 183 177 179 179 179 193
304 309 315 320 323 324 325 327 328 329 330 329 329 327 326 323 308 307 289 259 318 313 201 208 198 138 64 146 142 193 219 205 223 254 241 318 341 340 357 102 108 90 110 82 51 350 18 41 23 218 40 34 67 78 35 0 321 329 13 309 260 232 253 290 304 299 187 189 236 214 226 257 256 174 187 190 181 179 183 188 187 186 185 179 183 184 186 191
300 304 311 316 319 322 324 325 326 330 331 330 331 327 324 319 305 302 259 277 319 300 168 303 78 90 288 214 184 228 193 194 249 256 229 279 319 330 7 104 94 96 61 28 29 17 4 11 39 51 21 10 36 74 78 260 248 276 295 302 291 272 249 249 274 289 168 212 248 227 243 257 248 180 200 199 183 190 195 189 186 186 182 183 185 186 191 192
298 301 305 311 315 318 321 324 327 331 331 332 334 330 325 323 314 290 9 348 338 163 206 262 190 161 259 254 243 230 224 258 278 230 207 273 311 314 80 82 65 98 62 22 350 4 30 21 30 28 341 308 179 122 169 208 201 232 256 247 264 277 272 254 249 257 205 229 256 238 246 258 243 204 208 204 190 199 202 186 187 190 186 189 188 192 192 191
295 297 297 306 309 312 319 323 325 331 335 337 339 340 341 355 355 324 340 346 252 182 246 225 213 264 283 287 267 282 282 266 256 195 198 301 282 147 94 35 30 46 60 50 300 328 79 53 341 265 253 222 204 187 187 197 189 218 250 246 247 241 271 273 259 273 205 197 259 243 243 257 250 223 212 202 191 201 203 194 197 195 192 192 190 194 192 197
291 293 293 299 304 308 314 318 323 331 337 340 347 2 100 105 34 312 319 307 267 244 236 227 209 246 260 261 256 289 286 224 280 207 211 307 196 144 111 20 44 19 339 39 297 338 60 41 267 239 222 201 200 206 205 205 190 216 230 261 279 233 255 275 272 290 170 175 265 270 257 258 255 243 221 192 190 206 203 197 199 195 195 196 190 194 194 200
292 292 294 298 303 307 310 315 320 326 333 343 11 85 153 159 149 196 242 296 289 285 209 235 208 252 268 241 233 224 96 116 287 248 243 332 112 167 270 66 86 297 326 27 13 352 14 287 256 244 198 162 151 215 193 220 198 201 190 264 289 255 268 291 298 323 30 187 273 288 275 258 257 257 233 198 199 212 208 202 200 192 191 193 189 191 190 193
289 292 297 299 304 305 306 312 314 321 336 359 58 120 155 158 158 172 125 300 292 302 212 228 199 246 296 255 215 159 130 187 219 247 291 9 90 163 107 94 105 141 18 53 111 13 327 254 244 218 146 148 322 349 141 260 267 208 181 200 269 276 294 286 310 346 321 266 265 278 276 255 250 259 246 214 205 216 214 208 207 196 194 192 188 188 181 184
286 290 294 296 303 302 302 306 303 311 334 39 80 128 157 164 161 155 107 12 294 295 264 218 194 194 209 207 180 157 161 204 182 236 320 78 137 114 120 130 108 113 216 156 135 171 254 251 191 115 114 160 205 342 150 187 296 259 206 203 247 269 251 245 291 339 321 304 281 290 291 256 217 237 248 230 202 221 210 192 203 206 203 193 187 192 185 184
286 288 287 294 303 298 300 303 288 285 302 79 92 128 149 165 167 148 61 32 314 300 291 245 241 195 195 156 166 184 176 252 217 246 337 87 149 136 106 150 105 151 219 174 131 217 259 268 124 122 111 136 165 232 193 175 248 296 237 214 232 252 256 269 325 353 342 322 317 351 312 273 205 225 249 272 193 224 197 189 203 199 199 195 192 196 191 192
284 287 285 293 304 299 302 298 271 305 312 219 138 152 160 168 172 170 80 49 306 278 196 183 211 180 191 158 175 169 97 283 269 281 15 64 153 135 115 203 41 176 203 174 155 251 260 334 65 133 154 132 162 250 228 167 140 293 257 206 209 229 254 283 334 353 294 269 296 63 266 274 273 218 243 224 213 226 204 205 209 195 197 197 193 189 185 192
277 282 280 288 312 311 305 266 239 272 274 226 182 180 176 164 172 194 57 33 289 237 139 224 287 155 183 194 147 141 182 265 341 19 39 67 358 63 124 217 42 214 195 107 341 270 174 87 38 97 128 150 204 258 227 158 131 241 244 128 128 203 251 271 314 285 245 277 292 227 165 271 275 245 243 209 211 234 220 216 213 199 203 197 190 189 184 189
274 280 280 280 308 309 282 252 248 240 206 198 193 186 169 161 172 148 71 24 275 191 127 243 145 140 168 28 90 134 229 241 123 251 313 61 351 51 97 210 179 198 187 121 258 269 171 178 206 154 121 196 219 228 191 155 155 244 213 142 135 216 234 254 265 267 288 28 294 249 146 258 271 255 285 196 216 241 230 219 212 202 204 193 184 191 190 191
276 283 283 277 294 289 252 247 253 234 197 182 176 164 153 157 154 71 81 236 269 101 84 104 135 153 74 51 9 104 281 289 151 252 340 45 5 57 116 205 158 177 205 136 217 247 218 212 198 156 161 218 218 215 176 160 194 233 160 138 355 31 215 274 270 276 24 59 267 251 155 216 269 225 116 48 236 243 235 222 211 204 204 189 181 191 194 190
272 276 277 278 293 274 245 256 248 223 205 188 164 145 142 134 78 66 169 236 257 212 125 133 175 167 112 129 274 287 190 235 114 23 12 20 4 32 103 167 94 129 276 358 251 249 298 291 180 155 194 201 166 135 138 150 177 123 71 25 354 1 22 33 39 66 57 256 256 234 178 197 272 241 175 199 221 221 220 212 200 204 201 187 187 192 189 181
266 270 270 272 284 272 256 271 229 204 197 174 156 138 129 68 69 124 214 244 263 248 134 186 213 121 129 156 208 200 177 248 171 127 104 24 6 25 87 354 42 66 353 348 301 301 339 347 235 255 203 134 106 90 34 13 55 86 63 38 353 327 4 23 358 48 81 255 258 223 188 195 241 246 206 228 238 217 208 196 195 202 195 184 191 192 184 177
255 256 258 261 268 267 263 265 206 198 191 165 153 117 98 90 178 185 234 294 294 217 173 188 211 154 154 154 201 200 183 229 192 162 168 152 176 202 189 208 188 6 323 284 296 325 307 233 255 309 250 135 113 94 359 357 34 77 79 60 12 323 351 351 304 346 216 249 253 150 172 213 242 247 236 241 247 234 215 204 201 197 184 181 190 188 180 173
242 238 249 256 258 260 262 260 244 226 192 165 149 62 85 162 228 209 219 266 237 219 149 122 117 138 141 140 240 216 173 221 205 169 177 145 199 255 252 219 166 159 261 227 334 326 294 296 297 184 274 175 144 145 205 283 95 132 143 136 147 2 337 292 273 280 274 271 259 117 123 257 265 258 235 239 250 243 222 216 209 189 175 182 185 177 174 169
241 237 245 252 254 256 257 258 255 228 194 168 114 72 124 199 235 212 215 232 231 327 37 114 103 105 135 174 234 201 168 234 193 152 189 109 158 249 255 242 174 136 154 169 224 196 221 301 234 183 228 176 171 179 164 142 143 174 159 140 159 160 211 260 258 269 292 298 270 149 145 235 252 265 236 249 278 284 236 209 177 166 169 175 170 163 170 173
248 247 247 252 253 251 249 255 253 218 193 162 105 153 193 208 217 203 219 225 218 349 8 65 95 119 218 266 276 219 195 245 177 131 190 169 184 206 195 217 197 144 126 163 245 177 183 257 249 233 250 164 172 190 139 113 115 217 128 117 187 184 186 237 244 231 286 309 277 218 220 227 225 272 272 308 341 1 9 138 133 150 163 161 164 170 174 177
243 241 241 247 250 245 242 250 241 211 182 137 164 210 212 207 187 192 204 182 173 159 131 45 88 146 241 277 274 247 208 242 159 135 231 215 205 211 204 217 192 170 164 165 211 197 195 266 267 15 315 183 173 177 143 131 171 166 129 187 222 174 145 203 283 305 71 283 271 243 263 274 300 286 295 70 55 46 75 146 149 159 167 165 172 177 176 180
224 224 224 236 243 239 237 244 221 197 163 133 204 219 210 208 191 185 195 155 149 138 132 173 199 181 215 234 228 227 195 264 188 159 226 242 232 202 204 246 195 184 191 171 201 215 195 268 251 150 197 234 202 152 68 19 142 134 182 221 208 118 97 114 275 321 67 251 265 253 270 276 277 279 329 73 161 213 189 178 164 166 175 177 180 180 181 185
207 211 233 233 233 229 229 228 199 172 133 167 224 237 211 211 208 188 181 147 119 111 137 198 216 185 189 200 222 204 169 197 186 170 203 231 249 192 167 214 204 194 202 155 156 242 135 266 272 157 171 289 9 82 23 323 111 137 208 232 140 162 247 125 149 261 255 260 270 271 282 277 247 230 239 190 207 208 195 186 181 187 189 185 185 185 186 188
212 229 261 230 224 222 209 194 174 149 146 204 221 237 208 210 234 216 182 155 137 139 170 214 219 195 177 177 193 180 177 196 177 177 201 189 235 211 170 197 193 180 201 144 166 220 115 217 277 339 316 309 27 117 194 239 6 74 306 306 4 180 205 185 157 207 234 263 275 286 298 284 235 186 198 203 204 195 184 188 197 199 195 188 186 184 185 190
212 245 277 195 203 209 190 165 154 155 206 215 218 223 199 215 239 229 210 201 195 183 199 214 209 208 197 184 191 182 193 203 175 183 217 193 223 230 204 197 158 136 27 79 131 192 108 196 247 331 340 261 181 199 192 184 175 161 193 237 240 200 193 260 218 168 203 257 269 281 281 273 226 161 196 197 201 195 181 188 203 202 193 191 187 180 183 189
192 236 254 177 185 185 168 155 178 193 209 225 225 218 215 226 230 232 228 216 215 220 178 178 197 201 193 198 217 191 181 199 186 191 225 213 218 232 210 186 154 146 105 66 130 201 161 189 209 205 256 214 221 232 200 188 184 176 186 198 203 201 190 270 257 200 181 239 234 250 273 268 221 165 202 186 195 196 183 191 203 196 190 191 188 184 185 185
193 220 211 177 177 168 157 183 215 183 214 224 219 218 218 223 218 219 223 213 220 235 186 181 204 199 197 203 206 189 173 192 198 197 227 222 209 216 208 179 156 151 146 129 213 208 145 139 209 234 231 216 241 284 257 206 202 198 211 196 184 184 173 210 244 223 177 236 223 224 270 266 201 147 202 194 194 187 184 197 198 188 189 186 184 189 184 181
215 203 119 166 173 164 164 226 216 196 230 219 222 240 223 220 227 211 205 206 209 208 211 226 198 196 218 206 190 195 187 200 204 195 223 235 213 213 198 169 155 147 142 141 201 189 125 132 215 265 287 312 339 347 0 16 63 238 240 193 184 204 196 205 230 167 202 237 185 199 260 261 291 101 201 188 188 180 187 200 191 180 188 182 181 187 179 180
202 186 87 168 178 177 189 215 205 215 226 210 226 237 235 243 233 214 203 202 199 183 202 223 198 203 223 192 180 202 191 204 222 205 210 222 216 228 193 171 168 163 172 194 177 173 192 177 172 263 306 311 318 350 343 327 241 229 236 199 205 217 208 211 11 110 252 238 171 218 258 258 292 20 7 120 162 186 196 197 184 175 180 182 180 179 176 178
158 178 124 176 186 196 220 209 185 208 214 213 226 230 234 248 232 216 211 207 205 184 194 224 206 198 205 163 184 210 200 213 233 222 211 216 234 302 168 193 195 184 191 215 161 167 183 183 171 186 238 260 265 261 240 228 215 222 232 214 213 211 202 207 222 223 243 235 187 226 255 263 270 3 325 236 185 193 200 186 186 187 179 178 178 177 178 176
166 199 174 172 188 209 242 231 177 194 200 200 221 228 224 232 236 211 206 214 218 201 212 243 193 175 191 180 194 219 221 223 229 228 206 199 227 281 18 223 219 202 205 119 147 153 139 202 206 205 217 232 251 256 209 130 187 232 230 214 203 203 204 204 222 235 235 228 237 242 248 264 268 254 226 237 209 199 202 185 190 197 182 178 177 174 177 179
184 204 182 164 174 204 223 223 205 214 189 177 194 216 216 223 234 217 199 207 204 198 224 245 195 194 203 185 193 225 229 224 226 229 218 195 223 271 357 90 209 220 188 145 171 138 107 239 226 216 227 236 247 255 229 149 239 254 255 236 199 191 200 200 219 234 223 148 255 254 247 254 263 257 223 222 216 205 205 195 194 192 181 179 173 170 180 187
199 208 179 173 177 196 207 208 200 207 211 199 204 226 221 215 215 210 201 192 182 191 209 229 215 213 204 183 193 226 230 226 228 230 225 221 222 221 29 25 219 225 173 139 254 141 139 243 234 211 234 245 250 258 253 244 257 263 265 256 214 189 201 207 225 234 223 217 250 261 262 257 262 262 234 216 211 208 207 199 193 182 171 171 168 172 183 188
204 261 175 180 196 197 201 205 196 202 215 214 218 237 233 220 212 207 188 166 194 204 202 215 225 216 202 192 196 219 228 220 218 223 219 222 221 195 174 249 227 216 167 163 238 160 162 247 240 213 239 252 253 256 252 254 262 265 264 258 234 217 216 216 233 239 233 236 249 261 267 266 266 264 253 230 205 202 201 186 175 171 170 172 175 179 186 190
200 206 174 180 211 205 194 199 192 205 217 213 223 234 233 228 221 209 180 182 202 205 197 215 226 212 197 203 207 222 228 213 209 222 208 206 219 197 193 217 163 118 188 175 190 231 206 241 238 192 245 261 257 246 234 243 253 261 264 260 243 239 238 233 240 244 242 245 250 255 262 267 268 265 260 243 194 171 171 172 177 180 177 176 179 183 187 188
209 178 161 163 211 199 185 187 186 204 216 207 222 230 227 228 223 210 200 210 211 202 191 210 223 212 194 209 215 225 229 213 212 225 208 191 203 195 200 199 155 152 193 180 168 203 205 225 71 123 234 260 260 225 227 260 273 267 267 264 246 237 241 237 237 238 235 238 248 255 255 258 263 267 257 224 188 176 181 180 182 185 179 178 181 185 187 187
212 179 167 175 208 194 188 195 187 200 217 212 219 226 224 229 222 203 212 229 222 217 206 207 216 211 199 216 221 225 228 218 215 226 208 185 190 183 189 187 171 169 170 170 183 188 181 199 176 155 225 258 277 100 116 61 309 270 264 251 229 228 235 239 243 241 232 228 240 247 240 248 260 267 245 222 190 188 196 187 179 182 182 183 184 181 180 183